TOM84W EGCC-LSGG

Flight info

Callsign TOM84W
Flight time N/A
Altitude 35000
Route LISTO P18 TELBA L151 MID UL612 VEULE DCT PEKIM DCT PILUL DCT PIMUP/N0442F270 DCT PIXIS DCT PIBAT/N0415F230 DCT LUSAR
Aircraft B738/M-SDE2E3FGHIRWXY/LB1

Departure

Time 2026-05-04 18:24
Airport Manchester Airport (EGCC)

Arrival

Time N/A
Airport Geneva International Airport (LSGG)
Time Latitude Longitude Altitude Speed Heading
2026-05-04 17:50 53.36001 -2.27136 254 ft 0 kts 89°
2026-05-04 18:13 53.35996 -2.27203 254 ft 2 kts 58°
2026-05-04 18:14 53.35988 -2.27228 254 ft 4 kts 119°
2026-05-04 18:14 53.36005 -2.27243 254 ft 4 kts 178°
2026-05-04 18:14 53.36018 -2.27244 254 ft 0 kts 179°
2026-05-04 18:18 53.35971 -2.27242 254 ft 14 kts 179°
2026-05-04 18:18 53.35861 -2.27222 254 ft 13 kts 168°
2026-05-04 18:19 53.35708 -2.27201 254 ft 0 kts 171°
2026-05-04 18:19 53.35708 -2.27200 254 ft 0 kts 167°
2026-05-04 18:19 53.35705 -2.27195 254 ft 0 kts 144°
2026-05-04 18:21 53.35659 -2.27136 257 ft 15 kts 141°
2026-05-04 18:21 53.35574 -2.27021 257 ft 17 kts 141°
2026-05-04 18:21 53.35480 -2.26899 252 ft 18 kts 152°
2026-05-04 18:22 53.35389 -2.27000 250 ft 17 kts 231°
2026-05-04 18:22 53.35316 -2.27152 247 ft 16 kts 231°
2026-05-04 18:22 53.35219 -2.27229 244 ft 16 kts 191°
2026-05-04 18:22 53.35113 -2.27265 242 ft 15 kts 191°
2026-05-04 18:23 53.35013 -2.27308 239 ft 15 kts 217°
2026-05-04 18:23 53.34919 -2.27500 238 ft 52 kts 232°
2026-05-04 18:23 53.34471 -2.28429 229 ft 146 kts 231°
2026-05-04 18:23 53.33731 -2.29948 780 ft 184 kts 231°
2026-05-04 18:24 53.32859 -2.31718 1761 ft 200 kts 234°
2026-05-04 18:24 53.32077 -2.33676 2697 ft 214 kts 251°
2026-05-04 18:24 53.32041 -2.36258 3068 ft 235 kts 284°
2026-05-04 18:24 53.32451 -2.38961 3778 ft 244 kts 285°
2026-05-04 18:25 53.32586 -2.41945 4130 ft 277 kts 257°
2026-05-04 18:25 53.31670 -2.44741 4830 ft 277 kts 227°
2026-05-04 18:25 53.30074 -2.46365 5356 ft 274 kts 196°
2026-05-04 18:25 53.28180 -2.46445 6369 ft 276 kts 165°
2026-05-04 18:26 53.26477 -2.44974 7381 ft 278 kts 147°
2026-05-04 18:26 53.24829 -2.43232 8258 ft 284 kts 150°
2026-05-04 18:26 53.23103 -2.41568 9186 ft 288 kts 152°
2026-05-04 18:26 53.21333 -2.39946 10121 ft 291 kts 152°
2026-05-04 18:27 53.19512 -2.38314 10693 ft 309 kts 153°
2026-05-04 18:27 53.17520 -2.36561 10887 ft 336 kts 153°
2026-05-04 18:27 53.15542 -2.34245 11071 ft 363 kts 133°
2026-05-04 18:27 53.14257 -2.30546 11525 ft 379 kts 107°
2026-05-04 18:28 53.13989 -2.26179 12350 ft 382 kts 89°
2026-05-04 18:28 53.13656 -2.21780 13075 ft 387 kts 110°
2026-05-04 18:28 53.12244 -2.17981 13887 ft 389 kts 136°
2026-05-04 18:28 53.10013 -2.15492 14634 ft 388 kts 160°
2026-05-04 18:29 53.07374 -2.14727 15371 ft 388 kts 184°
2026-05-04 18:29 53.04765 -2.15801 16099 ft 389 kts 206°
2026-05-04 18:29 53.02338 -2.17810 16814 ft 392 kts 205°
2026-05-04 18:29 52.99794 -2.19367 17432 ft 398 kts 198°
2026-05-04 18:30 52.94593 -2.22674 18736 ft 404 kts 195°
2026-05-04 18:30 52.91820 -2.23536 19322 ft 408 kts 187°
2026-05-04 18:30 52.88983 -2.23998 19893 ft 412 kts 185°
2026-05-04 18:31 52.86115 -2.24383 20442 ft 415 kts 186°
2026-05-04 18:31 52.83253 -2.25157 20979 ft 419 kts 193°
2026-05-04 18:31 52.80412 -2.26299 21519 ft 422 kts 194°
2026-05-04 18:31 52.77560 -2.27525 22048 ft 425 kts 194°
2026-05-04 18:32 52.74667 -2.28717 22558 ft 429 kts 193°
2026-05-04 18:32 52.71774 -2.29848 23443 ft 423 kts 194°
2026-05-04 18:32 52.68886 -2.30711 23939 ft 427 kts 184°
2026-05-04 18:32 52.65899 -2.30247 24195 ft 436 kts 167°
2026-05-04 18:33 52.63056 -2.28440 24554 ft 442 kts 152°
2026-05-04 18:33 52.60469 -2.25671 25014 ft 444 kts 147°
2026-05-04 18:33 52.57920 -2.22767 25409 ft 447 kts 146°
2026-05-04 18:33 52.55357 -2.19853 25787 ft 450 kts 146°
2026-05-04 18:34 52.52763 -2.16947 26157 ft 452 kts 146°
2026-05-04 18:34 52.50140 -2.14051 26536 ft 455 kts 147°
2026-05-04 18:34 52.47510 -2.11175 26922 ft 457 kts 148°
2026-05-04 18:34 52.44854 -2.08283 27288 ft 459 kts 148°
2026-05-04 18:35 52.42186 -2.05384 27624 ft 461 kts 148°
2026-05-04 18:35 52.39508 -2.02473 27936 ft 463 kts 147°
2026-05-04 18:35 52.36816 -1.99546 28303 ft 465 kts 147°
2026-05-04 18:35 52.34126 -1.96626 28781 ft 463 kts 147°
2026-05-04 18:36 52.31447 -1.93725 29335 ft 461 kts 147°
2026-05-04 18:36 52.28778 -1.90838 29859 ft 459 kts 147°
2026-05-04 18:36 52.26122 -1.87972 30330 ft 457 kts 148°
2026-05-04 18:36 52.23477 -1.85136 30795 ft 454 kts 148°
2026-05-04 18:37 52.20830 -1.82312 31200 ft 453 kts 148°
2026-05-04 18:37 52.18195 -1.79504 31551 ft 453 kts 148°
2026-05-04 18:37 52.15552 -1.76689 31909 ft 453 kts 148°
2026-05-04 18:37 52.12922 -1.73890 32306 ft 452 kts 148°
2026-05-04 18:38 52.10296 -1.71098 32724 ft 450 kts 148°
2026-05-04 18:38 52.07675 -1.68323 33098 ft 449 kts 148°
2026-05-04 18:38 52.05055 -1.65564 33463 ft 449 kts 148°
2026-05-04 18:38 52.02462 -1.62851 33817 ft 448 kts 148°
2026-05-04 18:39 51.99851 -1.60100 34197 ft 446 kts 148°
2026-05-04 18:39 51.97255 -1.57341 34474 ft 447 kts 147°
2026-05-04 18:39 51.94650 -1.54567 34703 ft 448 kts 147°
2026-05-04 18:39 51.92045 -1.51798 34958 ft 448 kts 147°
2026-05-04 18:40 51.89421 -1.49019 35010 ft 453 kts 148°
2026-05-04 18:40 51.84134 -1.43456 35011 ft 451 kts 148°
2026-05-04 18:41 51.78901 -1.37982 35023 ft 444 kts 148°
2026-05-04 18:41 51.73731 -1.32582 35012 ft 441 kts 148°
2026-05-04 18:42 51.68602 -1.27221 35026 ft 438 kts 148°
2026-05-04 18:42 51.63483 -1.21884 35013 ft 438 kts 148°
2026-05-04 18:43 51.58365 -1.16564 35025 ft 438 kts 148°
2026-05-04 18:43 51.53267 -1.11277 35034 ft 439 kts 148°
2026-05-04 18:44 51.48113 -1.05948 35021 ft 441 kts 148°
2026-05-04 18:44 51.42940 -1.00628 35018 ft 442 kts 148°
2026-05-04 18:45 51.37746 -0.95314 35002 ft 443 kts 149°